Location: �mondeville
(49.4591°N, 1.3431°W)
Time: 08:47:28
(UTC+00:00)

Nadezhda 3 Rocket - Pass Details

Date: 22 October 2019
Orbit: 957 x 999 km, 82.9° (Epoch: 11 November)

Event Time Altitude Azimuth Distance (km) Brightness Sun altitude
Rises 04:06:20 0° 351° (N) 3,734 7.1 -25.0°
Reaches altitude 10° 04:08:54 10° 354° (N) 2,780 6.4 -24.6°
Maximum altitude 04:15:18 73° 79° (E) 1,044 4.2 -23.6°
Drops below altitude 10° 04:21:36 10° 164° (SSE) 2,744 6.4 -22.6°
Sets 04:24:06 0° 166° (SSE) 3,683 7.1 -22.2°
